This is the latest recevied weather packets stored in our database for station/object KB1WCR. If no packets are shown the sender has not sent any weather packets the latest 10 day(s).
| Time | Temp. | Humidity | Pressure | Rain* | Wind** | Luminosity | Snow |
|---|---|---|---|---|---|---|---|
| 1787681827 | 26.67° C | 65% | 1011.8 hPa | 0 mm | - | 684 W/m² | - |
| 1787681521 | 26.67° C | 62% | 1011.7 hPa | 0 mm | - | 683 W/m² | - |
| 1787681221 | 26.11° C | 63% | 1012 hPa | 0 mm | - | 691 W/m² | - |
| 1787680916 | 25° C | 68% | 1011.9 hPa | 0 mm | - | 716 W/m² | - |
| 1787680611 | 25° C | 67% | 1011.9 hPa | 0 mm | - | 185 W/m² | - |
| 1787680311 | 26.11° C | 65% | 1011.8 hPa | 0 mm | - | 218 W/m² | - |
| 1787680010 | 25.56° C | 67% | 1012 hPa | 0 mm | - | 858 W/m² | - |
| 1787679708 | 26.11° C | 67% | 1012 hPa | 0 mm | - | 224 W/m² | - |
| 1787679406 | 26.67° C | 63% | 1011.9 hPa | 0 mm | - | 210 W/m² | - |
| 1787679100 | 26.67° C | 65% | 1012.1 hPa | 0 mm | - | 890 W/m² | - |
| 1787678800 | 25.56° C | 62% | 1012.2 hPa | 0 mm | - | 263 W/m² | - |
| 1787678495 | 25° C | 66% | 1012.1 hPa | 0 mm | - | 804 W/m² | - |
| 1787678190 | 25.56° C | 60% | 1012.1 hPa | 0 mm | - | 144 W/m² | - |
| 1787677885 | 26.11° C | 59% | 1012.1 hPa | 0 mm | - | 843 W/m² | - |
| 1787677584 | 26.67° C | 61% | 1012 hPa | 0 mm | - | 856 W/m² | - |
| 1787677284 | 26.67° C | 63% | 1012.1 hPa | 0 mm | - | 836 W/m² | - |
| 1787676983 | 26.11° C | 59% | 1012.1 hPa | 0 mm | - | 841 W/m² | - |
| 1787676678 | 25.56° C | 63% | 1012.2 hPa | 0 mm | - | 623 W/m² | - |
| 1787676374 | 25.56° C | 65% | 1012.4 hPa | 0 mm | - | 807 W/m² | - |
| 1787676070 | 24.44° C | 72% | 1012.3 hPa | 0 mm | - | 198 W/m² | - |
| 1787675766 | 24.44° C | 68% | 1012.4 hPa | 0 mm | - | 130 W/m² | - |
| 1787675462 | 24.44° C | 66% | 1012.4 hPa | 0 mm | - | 146 W/m² | - |
| 1787675160 | 25° C | 65% | 1012.6 hPa | 0 mm | - | 212 W/m² | - |
| 1787674855 | 25° C | 67% | 1012.4 hPa | 0 mm | - | 177 W/m² | - |
| 1787674550 | 26.11° C | 62% | 1012.6 hPa | 0 mm | - | 135 W/m² | - |
* Rain latest hour (hover to see other rain measurements)
** Current wind speed in m/s (hover to see current wind gust speed)